| time (UTC) | temp F | wind direction | speed knots | gust knots | rain 1hr in | rain 24hr in | rain mn in | humidity % | barometer mb |
| 20260504030213 | 44 | 227 | 1.7 | 2.6 | 0.00 | 0.00 | 0.00 | 58 | 1012.8 |
| 20260504025709 | 44 | 228 | 0.9 | 0.9 | 0.00 | 0.00 | 0.00 | 59 | 1012.7 |
| 20260504025206 | 44 | 214 | 0.9 | 1.7 | 0.00 | 0.00 | 0.00 | 59 | 1012.7 |
| 20260504024704 | 44 | 208 | 0.0 | 0.9 | 0.00 | 0.00 | 0.00 | 58 | 1012.8 |
| 20260504024200 | 44 | 203 | 0.9 | 0.9 | 0.00 | 0.00 | 0.00 | 58 | 1012.7 |
| 20260504023656 | 45 | 215 | 0.0 | 0.9 | 0.00 | 0.00 | 0.00 | 56 | 1012.8 |
| 20260504023152 | 44 | 216 | 1.7 | 1.7 | 0.00 | 0.00 | 0.00 | 58 | 1012.7 |
| 20260504022649 | 44 | 194 | 0.9 | 1.7 | 0.00 | 0.00 | 0.00 | 57 | 1012.9 |
| 20260504022144 | 44 | 203 | 0.9 | 1.7 | 0.00 | 0.00 | 0.00 | 57 | 1012.8 |
| 20260504021643 | 44 | 201 | 1.7 | 1.7 | 0.00 | 0.00 | 0.00 | 57 | 1012.9 |
| 20260504021139 | 45 | 174 | 0.0 | 1.7 | 0.00 | 0.00 | 0.00 | 58 | 1013.0 |
| 20260504020637 | 45 | 220 | 1.7 | 1.7 | 0.00 | 0.00 | 0.00 | 55 | 1012.9 |
| 20260504020132 | 45 | 205 | 0.9 | 0.9 | 0.00 | 0.00 | 0.00 | 57 | 1012.9 |
| 20260504015629 | 44 | 237 | 0.9 | 0.9 | 0.00 | 0.00 | 0.00 | 57 | 1012.8 |
| 20260504015125 | 44 | 231 | 0.9 | 0.9 | 0.00 | 0.00 | 0.00 | 56 | 1012.7 |
| 20260504014621 | 45 | 215 | 0.9 | 1.7 | 0.00 | 0.00 | 0.00 | 57 | 1012.8 |
| 20260504014119 | 45 | 207 | 0.0 | 0.0 | 0.00 | 0.00 | 0.00 | 56 | 1012.7 |
| 20260504013616 | 45 | 219 | 0.9 | 1.7 | 0.00 | 0.00 | 0.00 | 56 | 1012.8 |
| 20260504013113 | 45 | 211 | 0.0 | 0.0 | 0.00 | 0.00 | 0.00 | 56 | 1012.7 |
| 20260504012610 | 45 | 211 | 0.0 | 0.9 | 0.00 | 0.00 | 0.00 | 55 | 1012.5 |
| 20260504012108 | 45 | 210 | 0.9 | 0.9 | 0.00 | 0.00 | 0.00 | 56 | 1012.5 |
| 20260504011605 | 45 | 208 | 0.9 | 0.9 | 0.00 | 0.00 | 0.00 | 54 | 1012.6 |
| 20260504011101 | 45 | 182 | 0.9 | 0.9 | 0.00 | 0.00 | 0.00 | 55 | 1012.4 |
| 20260504010556 | 45 | 186 | 1.7 | 1.7 | 0.00 | 0.00 | 0.00 | 53 | 1012.4 |
| 20260504010053 | 46 | 206 | 0.9 | 1.7 | 0.00 | 0.00 | 0.00 | 53 | 1012.7 |
| 20260504005550 | 45 | 213 | 0.0 | 0.9 | 0.00 | 0.00 | 0.00 | 53 | 1012.6 |
| 20260504005047 | 46 | 201 | 0.9 | 0.9 | 0.00 | 0.00 | 0.00 | 53 | 1012.5 |
| 20260504004545 | 46 | 208 | 0.9 | 0.9 | 0.00 | 0.00 | 0.00 | 52 | 1012.4 |
| 20260504004042 | 46 | 188 | 0.9 | 1.7 | 0.00 | 0.00 | 0.00 | 51 | 1012.1 |
| 20260504003538 | 47 | 218 | 0.9 | 0.9 | 0.00 | 0.00 | 0.00 | 51 | 1012.5 |
| 20260504003035 | 47 | 231 | 1.7 | 1.7 | 0.00 | 0.00 | 0.00 | 50 | 1012.5 |
| 20260504002531 | 47 | 222 | 0.9 | 0.9 | 0.00 | 0.00 | 0.00 | 51 | 1012.4 |
| 20260504002029 | 47 | 209 | 0.0 | 0.9 | 0.00 | 0.00 | 0.00 | 51 | 1012.4 |
| 20260504001527 | 47 | 199 | 0.9 | 1.7 | 0.00 | 0.00 | 0.00 | 50 | 1012.3 |
| 20260504001022 | 47 | 217 | 0.9 | 0.9 | 0.00 | 0.00 | 0.00 | 50 | 1012.5 |
| 20260504000520 | 48 | 210 | 0.9 | 0.9 | 0.00 | 0.00 | 0.00 | 50 | 1012.4 |
| 20260504000017 | 48 | 250 | 0.9 | 0.9 | 0.00 | 0.00 | 0.00 | 49 | 1012.1 |
| 20260503235515 | 48 | 216 | 0.9 | 1.7 | 0.00 | 0.00 | 0.00 | 48 | 1012.3 |
| 20260503235011 | 49 | 215 | 0.9 | 0.9 | 0.00 | 0.00 | 0.00 | 48 | 1012.3 |
| 20260503234509 | 49 | 236 | 1.7 | 2.6 | 0.00 | 0.00 | 0.00 | 47 | 1012.0 |
| 20260503234007 | 49 | 255 | 3.5 | 5.2 | 0.00 | 0.00 | 0.00 | 47 | 1012.4 |
| 20260503233503 | 49 | 203 | 0.9 | 0.9 | 0.00 | 0.00 | 0.00 | 49 | 1012.5 |
| 20260503232959 | 49 | 205 | 1.7 | 1.7 | 0.00 | 0.00 | 0.00 | 47 | 1012.5 |
| 20260503232456 | 50 | 179 | 1.7 | 2.6 | 0.00 | 0.00 | 0.00 | 46 | 1012.4 |
| 20260503231954 | 50 | 207 | 1.7 | 1.7 | 0.00 | 0.00 | 0.00 | 46 | 1012.5 |
| 20260503231451 | 50 | 330 | 1.7 | 1.7 | 0.00 | 0.00 | 0.00 | 47 | 1012.5 |
| 20260503230948 | 50 | 194 | 0.9 | 1.7 | 0.00 | 0.00 | 0.00 | 45 | 1012.4 |
| 20260503230444 | 51 | 288 | 3.5 | 3.5 | 0.00 | 0.00 | 0.00 | 45 | 1012.1 |
| 20260503225942 | 51 | 296 | 2.6 | 5.2 | 0.00 | 0.00 | 0.00 | 45 | 1012.3 |
| 20260503225439 | 51 | 248 | 2.6 | 3.5 | 0.00 | 0.00 | 0.00 | 44 | 1012.3 |
| 20260503224934 | 51 | 246 | 0.9 | 0.9 | 0.00 | 0.00 | 0.00 | 45 | 1012.3 |
| 20260503224431 | 51 | 228 | 1.7 | 2.6 | 0.00 | 0.00 | 0.00 | 45 | 1012.3 |
| 20260503223929 | 51 | 299 | 3.5 | 3.5 | 0.00 | 0.00 | 0.00 | 44 | 1012.5 |
| 20260503223427 | 51 | 308 | 3.5 | 7.0 | 0.00 | 0.00 | 0.00 | 45 | 1012.4 |
| 20260503222922 | 51 | 211 | 1.7 | 2.6 | 0.00 | 0.00 | 0.00 | 44 | 1012.4 |
| 20260503222421 | 51 | 216 | 2.6 | 2.6 | 0.00 | 0.00 | 0.00 | 44 | 1012.5 |
| 20260503221919 | 52 | 164 | 1.7 | 1.7 | 0.00 | 0.00 | 0.00 | 43 | 1012.3 |
| 20260503221417 | 53 | 223 | 0.9 | 1.7 | 0.00 | 0.00 | 0.00 | 44 | 1012.3 |
| 20260503220913 | 53 | 244 | 2.6 | 2.6 | 0.00 | 0.00 | 0.00 | 43 | 1012.1 |
| 20260503220410 | 51 | 222 | 1.7 | 2.6 | 0.00 | 0.00 | 0.00 | 42 | 1012.4 |
| 20260503215907 | 51 | 287 | 2.6 | 3.5 | 0.00 | 0.00 | 0.00 | 43 | 1012.4 |
| 20260503215404 | 52 | 200 | 0.9 | 0.9 | 0.00 | 0.00 | 0.00 | 42 | 1012.1 |
| 20260503214901 | 53 | 222 | 1.7 | 2.6 | 0.00 | 0.00 | 0.00 | 43 | 1012.5 |
| 20260503214358 | 52 | 234 | 0.9 | 0.9 | 0.00 | 0.00 | 0.00 | 45 | 1012.3 |
| 20260503213856 | 52 | 172 | 1.7 | 2.6 | 0.00 | 0.00 | 0.00 | 43 | 1012.3 |
| 20260503213354 | 51 | 258 | 1.7 | 1.7 | 0.00 | 0.00 | 0.00 | 44 | 1012.3 |
| 20260503212850 | 52 | 181 | 1.7 | 2.6 | 0.00 | 0.00 | 0.00 | 43 | 1012.1 |
| 20260503212348 | 52 | 79 | 1.7 | 1.7 | 0.00 | 0.00 | 0.00 | 44 | 1012.3 |
| 20260503211845 | 51 | 174 | 1.7 | 1.7 | 0.00 | 0.00 | 0.00 | 46 | 1012.1 |
| 20260503211342 | 51 | 245 | 2.6 | 3.5 | 0.00 | 0.00 | 0.00 | 43 | 1011.9 |
| 20260503210837 | 51 | 113 | 3.5 | 3.5 | 0.00 | 0.00 | 0.00 | 44 | 1012.1 |
| 20260503210334 | 52 | 186 | 4.3 | 5.2 | 0.00 | 0.00 | 0.00 | 42 | 1012.1 |
| 20260503205829 | 53 | 226 | 1.7 | 2.6 | 0.00 | 0.00 | 0.00 | 41 | 1012.1 |
| 20260503205326 | 51 | 229 | 2.6 | 3.5 | 0.00 | 0.00 | 0.00 | 43 | 1012.3 |
| 20260503204822 | 53 | 318 | 3.5 | 5.2 | 0.00 | 0.00 | 0.00 | 43 | 1012.3 |
| 20260503204320 | 51 | 228 | 2.6 | 3.5 | 0.00 | 0.00 | 0.00 | 44 | 1012.3 |
| 20260503203817 | 52 | 220 | 2.6 | 2.6 | 0.00 | 0.00 | 0.00 | 42 | 1012.1 |
| 20260503203315 | 51 | 233 | 1.7 | 1.7 | 0.00 | 0.00 | 0.00 | 43 | 1012.3 |
| 20260503202811 | 50 | 277 | 2.6 | 3.5 | 0.00 | 0.00 | 0.00 | 44 | 1012.3 |
| 20260503202309 | 50 | 242 | 3.5 | 3.5 | 0.00 | 0.00 | 0.00 | 44 | 1012.5 |
| 20260503201807 | 51 | 256 | 1.7 | 1.7 | 0.00 | 0.00 | 0.00 | 45 | 1012.6 |
| 20260503201304 | 50 | 265 | 3.5 | 5.2 | 0.00 | 0.00 | 0.00 | 43 | 1012.8 |
| 20260503200801 | 51 | 213 | 3.5 | 3.5 | 0.00 | 0.00 | 0.00 | 43 | 1012.8 |
| 20260503200257 | 51 | 243 | 3.5 | 3.5 | 0.00 | 0.00 | 0.00 | 44 | 1012.8 |
| 20260503195755 | 52 | 250 | 1.7 | 2.6 | 0.00 | 0.00 | 0.00 | 44 | 1012.6 |
| 20260503195251 | 51 | 334 | 3.5 | 5.2 | 0.00 | 0.00 | 0.00 | 45 | 1012.7 |
| 20260503194749 | 52 | 95 | 1.7 | 2.6 | 0.00 | 0.00 | 0.00 | 42 | 1012.8 |
| 20260503194244 | 51 | 218 | 4.3 | 6.1 | 0.00 | 0.00 | 0.00 | 43 | 1012.8 |
| 20260503193741 | 50 | 316 | 4.3 | 6.1 | 0.00 | 0.00 | 0.00 | 44 | 1013.0 |
| 20260503193237 | 50 | 200 | 3.5 | 5.2 | 0.00 | 0.00 | 0.00 | 43 | 1012.9 |
| 20260503192733 | 51 | 224 | 4.3 | 6.1 | 0.00 | 0.00 | 0.00 | 44 | 1013.0 |
| 20260503192228 | 52 | 305 | 2.6 | 3.5 | 0.00 | 0.00 | 0.00 | 43 | 1013.0 |
| 20260503191725 | 52 | 250 | 3.5 | 3.5 | 0.00 | 0.00 | 0.00 | 44 | 1013.0 |
| 20260503191222 | 50 | 310 | 7.0 | 7.8 | 0.00 | 0.00 | 0.00 | 43 | 1013.2 |
| 20260503190719 | 51 | 289 | 3.5 | 5.2 | 0.00 | 0.00 | 0.00 | 45 | 1013.1 |
| 20260503190215 | 51 | 210 | 2.6 | 2.6 | 0.00 | 0.00 | 0.00 | 42 | 1013.1 |
| 20260503185713 | 51 | 255 | 1.7 | 1.7 | 0.00 | 0.00 | 0.00 | 44 | 1013.3 |
| 20260503185208 | 50 | 179 | 6.1 | 8.7 | 0.00 | 0.00 | 0.00 | 43 | 1013.4 |
| 20260503184703 | 51 | 245 | 0.9 | 0.9 | 0.00 | 0.00 | 0.00 | 45 | 1013.4 |
| 20260503184200 | 51 | 166 | 3.5 | 3.5 | 0.00 | 0.00 | 0.00 | 41 | 1013.3 |
| 20260503183656 | 49 | 249 | 2.6 | 3.5 | 0.00 | 0.00 | 0.00 | 45 | 1013.6 |
| 20260503183153 | 50 | 302 | 3.5 | 3.5 | 0.00 | 0.00 | 0.00 | 44 | 1013.9 |
| 20260503182651 | 51 | 270 | 0.9 | 1.7 | 0.00 | 0.00 | 0.00 | 43 | 1013.4 |
| 20260503182150 | 51 | 230 | 3.5 | 5.2 | 0.00 | 0.00 | 0.00 | 44 | 1013.8 |
| 20260503181646 | 51 | 232 | 2.6 | 5.2 | 0.00 | 0.00 | 0.00 | 42 | 1013.6 |
| 20260503181143 | 51 | 39 | 2.6 | 3.5 | 0.00 | 0.00 | 0.00 | 42 | 1013.5 |
| 20260503180640 | 52 | 242 | 2.6 | 3.5 | 0.00 | 0.00 | 0.00 | 41 | 1013.4 |
| 20260503180138 | 51 | 330 | 4.3 | 6.1 | 0.00 | 0.00 | 0.00 | 42 | 1013.8 |
| 20260503175635 | 51 | 232 | 2.6 | 3.5 | 0.00 | 0.00 | 0.00 | 43 | 1013.6 |
| 20260503175132 | 50 | 252 | 1.7 | 1.7 | 0.00 | 0.00 | 0.00 | 46 | 1013.6 |
| 20260503174628 | 50 | 187 | 2.6 | 3.5 | 0.00 | 0.00 | 0.00 | 46 | 1013.8 |
| 20260503174126 | 50 | 163 | 1.7 | 2.6 | 0.00 | 0.00 | 0.00 | 41 | 1013.5 |
| 20260503173620 | 50 | 264 | 3.5 | 5.2 | 0.00 | 0.00 | 0.00 | 44 | 1013.8 |
| 20260503173117 | 49 | 283 | 4.3 | 5.2 | 0.00 | 0.00 | 0.00 | 44 | 1013.9 |
| 20260503172614 | 48 | 35 | 3.5 | 5.2 | 0.00 | 0.00 | 0.00 | 45 | 1014.0 |
| 20260503172112 | 50 | 214 | 1.7 | 3.5 | 0.00 | 0.00 | 0.00 | 44 | 1013.8 |
| 20260503171603 | 50 | 312 | 6.1 | 7.8 | 0.00 | 0.00 | 0.00 | 45 | 1013.8 |
| 20260503171100 | 50 | 190 | 1.7 | 3.5 | 0.00 | 0.00 | 0.00 | 43 | 1013.8 |
| 20260503170556 | 47 | 179 | 3.5 | 5.2 | 0.00 | 0.00 | 0.00 | 45 | 1014.0 |
| 20260503150949 | 45 | 3 | 5.2 | 8.7 | 0.00 | 0.00 | 0.00 | 50 | 1014.8 |
| 20260503150445 | 45 | 264 | 2.6 | 6.1 | 0.00 | 0.00 | 0.00 | 50 | 1014.6 |
| 20260503131337 | 37 | 261 | 3.5 | 3.5 | 0.00 | 0.00 | 0.00 | 76 | 1014.9 |
| 20260503130835 | 36 | 288 | 2.6 | 2.6 | 0.00 | 0.00 | 0.00 | 76 | 1014.6 |
| 20260503130333 | 36 | 291 | 1.7 | 1.7 | 0.00 | 0.00 | 0.00 | 76 | 1014.7 |
| 20260503110720 | 28 | 256 | 0.9 | 1.7 | 0.00 | 0.00 | 0.00 | 92 | 1014.1 |
| 20260503110217 | 28 | 292 | 1.7 | 2.6 | 0.00 | 0.00 | 0.00 | 92 | 1014.1 |
| 20260503100144 | 27 | 294 | 0.9 | 0.9 | 0.00 | 0.00 | 0.00 | 93 | 1013.5 |
| 20260503081538 | 29 | 295 | 0.9 | 0.9 | 0.00 | 0.00 | 0.00 | 88 | 1013.2 |
| 20260503081036 | 29 | 320 | 0.9 | 0.9 | 0.00 | 0.00 | 0.00 | 88 | 1013.2 |
| 20260503080532 | 29 | 280 | 0.9 | 1.7 | 0.00 | 0.00 | 0.00 | 87 | 1013.4 |
| 20260503072505 | 30 | 205 | 0.0 | 0.0 | 0.00 | 0.00 | 0.00 | 85 | 1013.0 |
| 20260503072003 | 30 | 288 | 0.9 | 0.9 | 0.00 | 0.00 | 0.00 | 84 | 1013.2 |
| 20260503071500 | 30 | 179 | 0.0 | 0.9 | 0.00 | 0.00 | 0.00 | 84 | 1013.1 |
| 20260503070955 | 30 | 245 | 0.9 | 0.9 | 0.00 | 0.00 | 0.00 | 84 | 1013.1 |
| 20260503070453 | 30 | 304 | 1.7 | 1.7 | 0.00 | 0.00 | 0.00 | 83 | 1013.0 |
| 20260503054906 | 31 | 313 | 0.9 | 0.9 | 0.00 | 0.00 | 0.00 | 78 | 1013.1 |
| 20260503054402 | 31 | 306 | 1.7 | 1.7 | 0.00 | 0.00 | 0.00 | 79 | 1013.2 |
| 20260503053900 | 31 | 310 | 1.7 | 1.7 | 0.00 | 0.00 | 0.00 | 78 | 1013.2 |
| 20260503053358 | 31 | 275 | 1.7 | 1.7 | 0.00 | 0.00 | 0.00 | 77 | 1013.4 |
| 20260503052853 | 32 | 210 | 0.9 | 1.7 | 0.00 | 0.00 | 0.00 | 78 | 1013.2 |
| 20260503052351 | 32 | 297 | 1.7 | 1.7 | 0.00 | 0.00 | 0.00 | 76 | 1013.3 |
| 20260503051847 | 32 | 256 | 2.6 | 2.6 | 0.00 | 0.00 | 0.00 | 75 | 1013.3 |
| 20260503051343 | 32 | 266 | 0.9 | 1.7 | 0.00 | 0.00 | 0.00 | 75 | 1013.4 |
| 20260503050840 | 32 | 284 | 1.7 | 2.6 | 0.00 | 0.00 | 0.00 | 78 | 1013.3 |
| 20260503050336 | 32 | 331 | 2.6 | 3.5 | 0.00 | 0.00 | 0.00 | 76 | 1013.3 |
| 20260503045835 | 32 | 304 | 2.6 | 3.5 | 0.00 | 0.00 | 0.00 | 76 | 1013.2 |
| 20260503045332 | 32 | 261 | 0.9 | 0.9 | 0.00 | 0.00 | 0.00 | 76 | 1013.6 |
| 20260503044828 | 32 | 226 | 1.7 | 3.5 | 0.00 | 0.00 | 0.00 | 75 | 1013.6 |
| 20260503044325 | 32 | 309 | 0.9 | 2.6 | 0.00 | 0.00 | 0.00 | 76 | 1013.5 |
| 20260503043822 | 32 | 317 | 1.7 | 2.6 | 0.00 | 0.00 | 0.00 | 76 | 1013.5 |
| 20260503043319 | 32 | 326 | 2.6 | 3.5 | 0.00 | 0.00 | 0.00 | 75 | 1013.6 |
| 20260503042816 | 32 | 278 | 4.3 | 6.1 | 0.00 | 0.00 | 0.00 | 75 | 1013.5 |
| 20260503042312 | 33 | 276 | 2.6 | 2.6 | 0.00 | 0.00 | 0.00 | 74 | 1013.5 |
| 20260503041808 | 33 | 304 | 3.5 | 5.2 | 0.00 | 0.00 | 0.00 | 75 | 1013.4 |
| 20260503041306 | 33 | 289 | 1.7 | 2.6 | 0.00 | 0.00 | 0.00 | 75 | 1013.8 |
| 20260503040803 | 33 | 325 | 1.7 | 3.5 | 0.00 | 0.00 | 0.00 | 74 | 1013.6 |
| 20260503040301 | 33 | 193 | 0.9 | 0.9 | 0.00 | 0.00 | 0.00 | 75 | 1013.5 |
| 20260503035757 | 33 | 336 | 1.7 | 1.7 | 0.00 | 0.00 | 0.00 | 74 | 1013.6 |
| 20260503035255 | 33 | 214 | 0.9 | 0.9 | 0.00 | 0.00 | 0.00 | 75 | 1013.6 |
| 20260503034752 | 33 | 298 | 2.6 | 5.2 | 0.00 | 0.00 | 0.00 | 74 | 1013.5 |
| 20260503034249 | 34 | 253 | 1.7 | 2.6 | 0.00 | 0.00 | 0.00 | 73 | 1013.8 |
| 20260503033746 | 34 | 282 | 0.9 | 0.9 | 0.00 | 0.00 | 0.00 | 73 | 1013.5 |
| 20260503033244 | 34 | 310 | 2.6 | 3.5 | 0.00 | 0.00 | 0.00 | 72 | 1013.6 |
| 20260503032742 | 34 | 324 | 1.7 | 2.6 | 0.00 | 0.00 | 0.00 | 73 | 1014.0 |
| 20260503032240 | 34 | 236 | 1.7 | 1.7 | 0.00 | 0.00 | 0.00 | 73 | 1013.6 |
| 20260503031737 | 34 | 313 | 2.6 | 3.5 | 0.00 | 0.00 | 0.00 | 74 | 1013.5 |
| 20260503031235 | 34 | 315 | 2.6 | 3.5 | 0.00 | 0.00 | 0.00 | 72 | 1013.8 |
| 20260503030731 | 34 | 298 | 1.7 | 2.6 | 0.00 | 0.00 | 0.00 | 72 | 1013.9 |